Tracking 17857 objects as of 29-September-2016
HD Live streaming from Space Station
objects crossing your sky now

ATLAS CENTAUR R/B

Track ATLAS CENTAUR R/B now!


NORAD ID: 10976
Int'l Code: 1978-068B
Perigee: 646.4 km
Apogee: 36,210.0 km
Inclination: 21.7 °
Period: 647.8 minutes
Semi major axis: 24799 km
RCS: 16.8333 m2 (large)
Launch date: June 29, 1978
Source: United States (US)
Launch site: AIR FORCE EASTERN TEST RANGE (AFETR)

Note: This is a ROCKET BODY
Your satellite tracking list
Your tracking list is empty





NASA's NSSDC Master Catalog

Two Line Element Set (TLE):
1 10976U 78068B   16272.21962808 -.00000246  00000-0  71420-3 0  9996
2 10976  21.6712 293.5328 7170320  96.7569 356.8101  2.22303744310429
Source of the keplerian elements: AFSPC

N2YO: 1859